Weather in Kirkuk

Iraq     35°26′55″N   44°22′49″E
temp.,
°C
wind,
m/s
gust,
m/s
humid.,
%
clouds,
%
prec.,
mm/h
press.,
hPa
HPBL,
m
15 may, sat
sat1500:00+27ne613210 0.0 1007217
03:00+26ne613220 0.0 1006190
06:00+26ne511250 0.0 1007173
09:00+33ne89150 0.0 10071162
12:00+35nne78110 0.0 10073036
15:00+36nne7790 0.0 10053711
18:00+34ne46130 0.0 1004241
21:00+29ne44140 0.0 100641
16 may, sun
sun1600:00+28ene43160 0.0 100527
03:00+25ne22190 0.0 100615
06:00+26ene47230 0.0 1006107
09:00+33ene55150 0.0 1006926
12:00+35n22110 0.0 10053767
15:00+37wnw5490 0.0 10044239
18:00+35nw4690 0.0 1004205
21:00+29nnw22131 0.0 100511
17 may, mon
mon1700:00+29ene441282 0.0 100537
03:00+28ene44120 0.0 100528
06:00+28e44140 0.0 100647
09:00+35s67928 0.0 10061122
12:00+38ssw897100 0.0 10064258
15:00+39sw1012791 0.0 10044689
18:00+36sw7109100 0.0 1004427
21:00+31nw51111100 0.0 1006296
18 may, tue
tue1800:00+29nne6121397 0.1 1006329
03:00+27ene5715100 0.1 100591
06:00+28e221686 0.0 100629
09:00+31w44136 0.0 1007574
12:00+34w79120 0.0 10062155
15:00+34w89105 0.0 10062577
18:00+32w67110 0.0 10061143
21:00+27nnw33150 0.0 100820
19 may, wed
wed1900:00+24n11200 0.0 100811
03:00+23ne22200 0.0 100811
06:00+24ene22190 0.0 100916
09:00+31nnw12130 0.0 1009902
12:00+35w32100 0.0 10072231
15:00+36w5490 0.0 10062435
18:00+34wnw46100 0.0 1006215
21:00+29n33120 0.0 100718